Bookmark and Share
Track history (hours):
 

CMA CGM Tosca

Last reported at 2014-Apr-14 21:31 UTC. Time now 2014-Apr-16 05:24 UTC.
Position N 22°20' E 114°07'.

Length 334 m; draft 12.9 m.

Type: Cargo ship. MMSI: 228335900.

NotesDate/timePositionNaut miles runAvg speedWind from/ knotsBaromVisibWave heightAir tempDewpointWater temp
2014-Apr-14 21:31N 22°20' E 114°07'0 0.0
2014-Apr-14 19:31N 22°20' E 114°07'0 0.0
2014-Apr-14 15:31N 22°20' E 114°07'0 0.0
2014-Apr-14 14:31N 22°20' E 114°07'3 0.4
2014-Apr-14 06:33N 22°17' E 114°06'10 9.5
2014-Apr-14 05:31N 22°10' E 114°13'17113.9
2014-Apr-13 17:14N 23°01' E 117°09'2917.5
2014-Apr-13 15:33N 23°21' E 117°33'1817.5
2014-Apr-13 14:31N 23°32' E 117°48'1717.4
2014-Apr-13 13:33N 23°44' E 118°02'1918.7
2014-Apr-13 12:33N 23°55' E 118°18'1918.6
2014-Apr-13 11:32N 24°05' E 118°35'2118.6
2014-Apr-13 10:25N 24°18' E 118°53'1618.0
2014-Apr-13 09:31N 24°28' E 119°07'1818.3
2014-Apr-13 08:33N 24°40' E 119°22'1717.4
2014-Apr-13 07:33N 24°50' E 119°37'30121.4
2014-Apr-12 17:31N 29°07' E 122°33'2622.7
2014-Apr-12 16:23N 29°33' E 122°32'1619.5
2014-Apr-12 15:33N 29°44' E 122°19'1111.1
2014-Apr-12 14:33N 29°49' E 122°08'1 0.5
2014-Apr-12 13:23N 29°49' E 122°07'0 0.0
2014-Apr-12 12:22N 29°49' E 122°07'0 0.1
2014-Apr-12 11:22N 29°49' E 122°07'0 0.1
2014-Apr-12 10:29N 29°49' E 122°07'0 0.1
2014-Apr-12 09:29N 29°49' E 122°07'6 6.7
2014-Apr-12 08:33N 29°46' E 122°01'0 0.2
2014-Apr-12 07:26N 29°46' E 122°00'0 0.0
2014-Apr-12 06:32N 29°46' E 122°00'0 0.0
2014-Apr-12 05:32N 29°46' E 122°00'0 0.0
2014-Apr-12 04:26N 29°46' E 122°00'0 0.1
2014-Apr-12 03:32N 29°46' E 122°00'0 0.0
2014-Apr-12 02:32N 29°46' E 122°00'0 0.0
2014-Apr-12 01:32N 29°46' E 122°00'0 0.1
2014-Apr-12 00:32N 29°46' E 122°00'0 0.0
2014-Apr-11 23:26N 29°46' E 122°00'0 0.0
2014-Apr-11 22:32N 29°46' E 122°00'0 0.0
2014-Apr-11 21:32N 29°46' E 122°00'0 0.1
2014-Apr-11 20:32N 29°46' E 122°00'0 0.1
2014-Apr-11 19:32N 29°46' E 122°00'0 0.0
2014-Apr-11 18:32N 29°46' E 122°00'0 0.0
2014-Apr-11 17:32N 29°46' E 122°00'0 0.0
2014-Apr-11 16:32N 29°46' E 122°00'0 0.1
2014-Apr-11 15:32N 29°46' E 122°00'0 0.1
2014-Apr-11 14:32N 29°46' E 122°00'0 0.1
2014-Apr-11 13:32N 29°46' E 122°00'0 0.0
2014-Apr-11 12:32N 29°46' E 122°00'0 0.1
2014-Apr-11 11:32N 29°46' E 122°00'0 0.0
2014-Apr-11 10:32N 29°46' E 122°00'0 0.0
2014-Apr-11 09:26N 29°46' E 122°00'2 2.3
2014-Apr-11 08:32N 29°47' E 122°02'10 9.9
2014-Apr-11 07:33N 29°50' E 122°13'9 9.2
2014-Apr-11 06:34N 29°45' E 122°23'1010.0
2014-Apr-11 05:34N 29°48' E 122°34'1110.8
2014-Apr-11 04:32N 29°54' E 122°44'1211.6
2014-Apr-11 03:29N 30°03' E 122°54'1213.0
2014-Apr-11 02:34N 30°12' E 123°03'1918.2
2014-Apr-11 01:32N 30°26' E 122°48'1817.5
2014-Apr-11 00:31N 30°31' E 122°28'1313.7
2014-Apr-10 23:33N 30°33' E 122°13'10 1.3
2014-Apr-10 16:24N 30°38' E 122°03'0 0.0
2014-Apr-09 09:33N 30°38' E 122°03'7 7.3
2014-Apr-09 08:33N 30°34' E 122°11'1514.6
2014-Apr-09 07:32N 30°31' E 122°28'1 0.1
2014-Apr-08 14:20N 30°31' E 122°26'5 5.5
2014-Apr-08 13:24N 30°33' E 122°21'3 3.8
2014-Apr-08 12:34N 30°32' E 122°25'15 6.7
2014-Apr-08 10:24N 30°28' E 122°41'0 0.0
2014-Apr-08 09:30N 30°28' E 122°41'2 0.1
2014-Apr-07 07:33N 30°29' E 122°43'1010.4
2014-Apr-07 06:33N 30°23' E 122°53'3410.8
2014-Apr-07 03:27N 29°50' E 122°57'1412.1
2014-Apr-07 02:20N 29°36' E 122°54'3411.8
2014-Apr-06 23:29N 29°04' E 122°42'31913.2
2014-Apr-05 23:16N 24°37' E 119°27'1115.2
2014-Apr-05 22:33N 24°31' E 119°17'1615.0
2014-Apr-05 21:29N 24°20' E 119°05'1715.0
2014-Apr-05 20:23N 24°11' E 118°50'1515.8
2014-Apr-05 19:28N 24°02' E 118°37'1516.5
2014-Apr-05 18:34N 23°55' E 118°23'1717.3
2014-Apr-05 17:33N 23°44' E 118°07'1817.7
2014-Apr-05 16:33N 23°34' E 117°51'1818.1
2014-Apr-05 15:34N 23°25' E 117°35'1818.0
2014-Apr-05 14:34N 23°12' E 117°21'1817.6
2014-Apr-05 13:33N 22°58' E 117°09'1717.1
2014-Apr-05 12:33N 22°48' E 116°54'1816.6
2014-Apr-05 11:30N 22°35' E 116°41'1516.2
2014-Apr-05 10:33N 22°31' E 116°25'1716.6
2014-Apr-05 09:32N 22°27' E 116°07'10016.5
2014-Apr-05 03:26N 22°07' E 114°21'1812.8
2014-Apr-05 02:04N 22°18' E 114°06'  

Dump ship's entire track history

sailing weather and tide predictions

CMA CGM Tosca — FMEL — position and weather